This demonstration page uses our WeatherBlox Daily Observations layout. Learn more.

Left ArrowRight Arrow

38.88101, -77.10428

Hourly Observations for September 1, 2022

Temp ( °F °C ) Dew Point ( °F °C ) Humidity (%) Winds ( mph kmh ) Pressure ( in mb ) Visibility ( mi km ) Precip ( " mm )
12:52 am 00:52 Clear 73 22.8 56 13.3 55 55 W 6 9 29.96 1015 10 16 0.00 0.00
1:52 am 01:52 Clear 72 22.2 56 13.3 57 57 W 6 9 29.97 1015 10 16 0.00 0.00
2:52 am 02:52 Mostly Clear 71 21.7 57 13.9 61 61 WNW 5 7 29.97 1015 10 16 0.00 0.00
3:52 am 03:52 Clear 70 21.1 57 13.9 63 63 VRB 3 6 29.98 1015 10 16 0.00 0.00
4:52 am 04:52 Mostly Clear 68 20 57 13.9 68 68 SW 5 7 29.98 1015 10 16 0.00 0.00
5:52 am 05:52 Mostly Clear 66 18.9 58 14.4 75 75 SSW 5 7 29.99 1016 10 16 0.00 0.00
6:52 am 06:52 Mostly Sunny 67 19.4 58 14.4 73 73 Calm 30.01 1016 10 16 0.00 0.00
7:52 am 07:52 Mostly Sunny 72 22.2 58 14.4 61 61 W 6 9 30.02 1017 10 16 0.00 0.00
8:52 am 08:52 Mostly Sunny 77 25 59 15 54 54 W 7 11 30.04 1017 10 16 0.00 0.00
9:52 am 09:52 Mostly Sunny 81 27.2 59 15 47 47 NW 10 17 30.04 1017 10 16 0.00 0.00
10:52 am 10:52 Mostly Sunny 83 28.3 60 15.6 46 46 NW 7 11 30.05 1018 10 16 0.00 0.00
11:52 am 11:52 Mostly Sunny 84 28.9 59 15 43 43 VRB 5 7 30.04 1017 10 16 0.00 0.00
12:52 pm 12:52 Partly Cloudy 86 30 59 15 40 40 VRB 6 9 30.03 1017 10 16 0.00 0.00
1:52 pm 13:52 Partly Cloudy 88 31.1 56 13.3 34 34 NNW 6 9 30.02 1017 10 16 0.00 0.00
2:52 pm 14:52 Sunny 89 31.7 54 12.2 30 30 NW 9 15 30.01 1016 10 16 0.00 0.00
3:52 pm 15:52 Mostly Sunny 90 32.2 54 12.2 30 30 W 10 17 29.99 1016 10 16 0.00 0.00
4:52 pm 16:52 Mostly Sunny 89 31.7 55 12.8 32 32 NW 9 15 29.98 1015 10 16 0.00 0.00
5:52 pm 17:52 Mostly Sunny 88 31.1 56 13.3 34 34 NNW 9 15 29.98 1015 10 16 0.00 0.00
6:52 pm 18:52 Mostly Sunny 85 29.4 57 13.9 39 39 N 8 13 29.99 1016 10 16 0.00 0.00
7:52 pm 19:52 Mostly Clear 83 28.3 57 13.9 41 41 NNW 3 6 30.00 1016 10 16 0.00 0.00
8:52 pm 20:52 Clear 82 27.8 57 13.9 43 43 W 5 7 30.02 1017 10 16 0.00 0.00
9:52 pm 21:52 Clear 81 27.2 58 14.4 45 45 WNW 3 6 30.04 1017 10 16 0.00 0.00
10:52 pm 22:52 Clear 77 25 61 16.1 58 58 SW 3 6 30.05 1018 10 16 0.00 0.00
11:52 pm 23:52 Clear 77 25 66 18.9 69 69 Calm 30.06 1018 10 16 0.00 0.00

Powered by AerisWeather